Location: Unspecified
(0.0000°N, 0.0000°E)
Time: 19:39:00
(UTC+00:00)

COSMOS 2489 - Visible Passes

Search period start: 18 May 2026 00:00
Search period end: 28 May 2026 00:00
Orbit: 1477 x 1512 km, 82.5° (Epoch: 18 May)

Date Brightness Start Highest point End Pass type
(mag) Time Alt. Az. Time Alt. Az. Time Alt. Az.
18 May ? 21:00:01 46° NNW 21:00:01 46° NNW 21:05:46 10° N visible
19 May ? 20:09:54 44° NE 20:09:54 44° NE 20:16:14 10° NNE visible
19 May ? 22:05:42 19° WNW 22:05:42 19° WNW 22:10:02 10° NW visible
20 May ? 19:19:34 23° E 19:19:34 23° E 19:25:04 10° NE visible
20 May ? 21:15:22 45° W 21:15:22 45° W 21:23:16 10° NNW visible
21 May ? 20:24:44 73° S 20:25:50 87° E 20:34:40 10° N visible
22 May ? 19:33:33 32° SE 19:36:39 42° E 19:44:44 10° NNE visible
22 May ? 21:29:15 19° WSW 21:33:03 25° W 21:39:51 10° NW visible
23 May ? 18:42:00 10° SE 18:47:27 18° E 18:52:50 10° NE visible
23 May ? 20:35:17 10° SSW 20:43:52 56° W 20:52:26 10° N visible
24 May ? 19:45:52 10° S 19:54:42 72° E 20:03:27 10° N visible
24 May ? 21:47:57 10° WSW 21:51:06 12° W 21:54:15 10° WNW visible
25 May ? 18:57:50 10° SSE 19:05:30 33° E 19:13:07 10° NNE visible
25 May ? 20:54:25 10° SW 21:01:55 32° W 21:09:25 10° NNW visible
26 May ? 18:12:33 10° ESE 18:16:18 13° E 18:20:01 10° ENE visible
26 May ? 20:03:57 10° SSW 20:12:45 69° W 20:21:28 10° N visible
27 May ? 19:14:54 10° S 19:23:34 59° E 19:32:08 10° NNE visible
27 May ? 21:14:54 10° WSW 21:19:57 17° W 21:25:02 10° NW visible
